Location: Brabourne
(51.1333°N, 1.0000°E)
Time: 21:38:21
(UTC+00:00)

NOSS 3-1 (C) - Pass Details

Date: 20 June 2021
Orbit: 722 x 1486 km, 63.4° (Epoch: 30 July)

Event Time Altitude Azimuth Distance (km) Brightness Sun altitude
Exits shadow 00:31:15 19° 216° (SW) 1,846 4.5 -15.1°
Maximum altitude 00:35:16 81° 132° (SE) 898 3.3 -15.0°
Drops below altitude 10° 00:41:44 10° 46° (NE) 2,806 6.7 -14.8°
Sets 00:44:36 0° 45° (NE) 3,885 7.6 -14.7°
